Regional Weather Roundup
Issued by NWS

Home | Current Version | Previous Version | Text Only | Print | Product List | Glossary Off
Versions: 1 2 3 4 5 6 7 8 9 10 11 12 13 14 15 16 17 18 19 20 21 22 23 24 25 26 27 28 29 30 31 32 33 34 35 36 37 38 39 40 41 42 43 44 45 46 47 48 49 50

000
ASUS43 KDTX 301201
RWRMI
MICHIGAN HOURLY REGIONAL WEATHER ROUNDUP
NATIONAL WEATHER SERVICE DETROIT/PONTIAC MI
800 AM EDT SAT MAY 30 2015

NOTE: "FAIR" INDICATES FEW OR NO CLOUDS BELOW 12,000 FEET WITH NO
SIGNIFICANT WEATHER AND/OR OBSTRUCTION TO VISIBILITY.

MIZ047>049-052>055-059>063-066>070-074>076-081>083-301300-
SOUTHEAST LOWER MICHIGAN

CITY           SKY/WX    TMP DP  RH WIND       PRES   REMARKS
ADRIAN         MOSUNNY   71  66  84 SW12      30.01R
6HR MIN TEMP:  67; 6HR MAX TEMP:  72;

ALMA           CLOUDY    68  66  94 SW5       29.96R
ANN ARBOR      MOSUNNY   72  66  81 SW9       29.99S
BAD AXE        CLOUDY    69  66  88 W8        29.95R
CARO           PTSUNNY   70  67  92 SW7       29.95R
DETROIT CITY   MOSUNNY   74  65  73 SW12      29.98S
6HR MIN TEMP:  70; 6HR MAX TEMP:  74;

DETROIT        PTSUNNY   75  66  73 S12       30.00R
6HR MIN TEMP:  71; 6HR MAX TEMP:  75;

FLINT          PTSUNNY   75  66  73 W10       29.97R
6HR MIN TEMP:  72; 6HR MAX TEMP:  75;

GROSSE ILE     PTSUNNY   72  66  83 SW6       29.99S
HILLSDALE      MOSUNNY   71  68  91 SW7       30.01R
6HR MIN TEMP:  69; 6HR MAX TEMP:  72;

HOWELL         PTSUNNY   71  65  82 S7        29.98S
6HR MIN TEMP:  69; 6HR MAX TEMP:  72;


CITY           SKY/WX    TMP DP  RH WIND       PRES   REMARKS
JACKSON        PTSUNNY   72  66  81 SW9       29.99R
6HR MIN TEMP:  69; 6HR MAX TEMP:  74;

LAMBERTVILLE   SUNNY     72  64  78 S7        30.01S
LANSING        PTSUNNY   70  66  87 SW8       29.97S
6HR MIN TEMP:  68; 6HR MAX TEMP:  70;

LAPEER         PTSUNNY   73  64  73 W7        29.97S
MASON          PTSUNNY   70  64  80 W6        29.98R
MONROE         SUNNY     73  66  78 SW7       29.99S
MT. CLEMENS    PTSUNNY   74  66  75 SW12      29.96R
6HR MIN TEMP:  65; 6HR MAX TEMP:  74;

PONTIAC        PTSUNNY   71  64  78 SW9       29.98R
6HR MIN TEMP:  69; 6HR MAX TEMP:  74;

PORT HOPE        N/A     70  67  90 VRB6      29.92R
6HR MIN TEMP:  69; 6HR MAX TEMP:  70; 6HR PCP:  0.25;

PORT HURON     MOSUNNY   72  66  83 SW7       29.97S
TRI CITIES     CLOUDY    71  66  84 SW9       29.94R
6HR MIN TEMP:  69; 6HR MAX TEMP:  71;

MIDLAND        CLOUDY    69  66  93 SW3       29.93R
TROY           MOSUNNY   73  66  79 SW12G17   30.00S
SAGINAW HB     PTSUNNY   70  70 100 SW8       29.94R
$$
MIZ043>046-050>051-056>058-064>065-071>073-077>080-301300-
SOUTHWEST LOWER MICHIGAN

CITY           SKY/WX    TMP DP  RH WIND       PRES   REMARKS
BATTLE CREEK   CLOUDY    70  65  84 SW8       29.99R
6HR MIN TEMP:  69; 6HR MAX TEMP:  70;

BENTON HARBOR  LGT RAIN  67  66  97 SW12      29.98R FOG
6HR MIN TEMP:  67; 6HR MAX TEMP:  70; 6HR PCP:  0.04;

BIG RAPIDS     PTSUNNY   65  62  89 CALM      29.95R
6HR MIN TEMP:  64; 6HR MAX TEMP:  68; 6HR PCP:  0.12;

COLDWATER      PTSUNNY   70  64  82 SW7       30.00R
6HR MIN TEMP:  68; 6HR MAX TEMP:  72;

FREMONT        CLOUDY    63  62  97 CALM      29.96R
6HR MIN TEMP:  61; 6HR MAX TEMP:  66;

HOLLAND        CLOUDY    63  60  90 SW7       29.98R
6HR MIN TEMP:  61; 6HR MAX TEMP:  72;

GRAND RAPIDS   CLOUDY    68  65  90 SW6       29.96R
6HR MIN TEMP:  68; 6HR MAX TEMP:  70;

IONIA          FAIR      69  66  90 SW6       29.95S
KALAMAZOO      CLOUDY    69  65  86 SW6       29.99R
6HR MIN TEMP:  69; 6HR MAX TEMP:  70;

LUDINGTON      LGT RAIN  56  54  92 N9        29.98S
6HR MIN TEMP:  56; 6HR MAX TEMP:  58; 6HR PCP:  0.15;

MARSHALL       PTSUNNY   72  65  80 SW6       29.98R
MOUNT PLEASANT CLOUDY    67  65  91 SW5       29.94R
6HR MIN TEMP:  67; 6HR MAX TEMP:  68;

MUSKEGON       CLOUDY    59  56  89 W3        29.97R FOG
6HR MIN TEMP:  57; 6HR MAX TEMP:  65; 6HR PCP:  0.02;

SOUTH HAVEN    LGT RAIN  67  65  91 W6        29.98R
$$
MIZ016>042-301300-
NORTHERN LOWER MICHIGAN

CITY           SKY/WX    TMP DP  RH WIND       PRES   REMARKS
ALPENA         LGT RAIN  62  60  93 NW3       29.94R
6HR MIN TEMP:  62; 6HR MAX TEMP:  68; 6HR PCP:  0.04;

BEAVER ISLAND  LGT RAIN  47  46  95 N5        30.03R
6HR MIN TEMP:  47; 6HR MAX TEMP:  54;

BELLAIRE       LGT RAIN  54  52  94 CALM      30.00R
6HR MIN TEMP:  54; 6HR MAX TEMP:  60;

CADILLAC       LGT RAIN  56  55  95 N5        29.98R
CHARLEVOIX     DRIZZLE   49  49 100 NW8       30.04R
FRANKFORT      LGT RAIN  52  47  81 N7        30.01R
GAYLORD        LGT RAIN  55  55 100 NW6       29.98R
6HR MIN TEMP:  55; 6HR MAX TEMP:  67; 6HR PCP:  0.09;

GRAYLING       CLOUDY    58  56  94 N6        29.98R
HARBOR SPRINGS DRIZZLE   50  50  99 SW3       29.99R
HOUGHTON LAKE  CLOUDY    60  58  92 NW9       29.96R
6HR MIN TEMP:  60; 6HR MAX TEMP:  68; 6HR PCP:  0.04;

MANISTEE       CLOUDY    55  52  88 NW7       30.01R
OSCODA         LGT RAIN  66  65  96 NW5       29.93R
PELLSTON       LGT RAIN  52  50  93 NW13G21   30.00R
6HR MIN TEMP:  52; 6HR MAX TEMP:  61; 6HR PCP:  0.07;

ROGERS CITY    LGT RAIN  59  58  96 NW9       29.96R
TRAVERSE CITY  LGT RAIN  52  50  93 N5        29.99R
6HR MIN TEMP:  52; 6HR MAX TEMP:  60; 6HR PCP:  0.13;

$$
MIZ007>008-015-301300-
EASTERN UPPER MICHIGAN

CITY           SKY/WX    TMP DP  RH WIND       PRES   REMARKS
KINROSS        CLOUDY    46  46 100 NW16      29.97R
6HR MIN TEMP:  46; 6HR MAX TEMP:  59;

MACKINAC ISLAN CLOUDY    49  49 100 NW10G17   29.98R
6HR MIN TEMP:  49; 6HR MAX TEMP:  57; 6HR PCP:  0.05;

NEWBERRY       CLOUDY    44  43  97 NW9G16    30.03R
S. S. MARIE    CLOUDY    45  44  97 NW8       29.96R
6HR MIN TEMP:  44; 6HR MAX TEMP:  56; 6HR PCP:  0.02;

$$
MIZ004>006-011>014-085-301300-
CENTRAL UPPER MICHIGAN

CITY           SKY/WX    TMP DP  RH WIND       PRES   REMARKS
MANISTIQUE     CLOUDY    45  42  90 N17G26    30.03R
6HR MIN TEMP:  44; 6HR MAX TEMP:  51; 6HR PCP:  0.06;

ESCANABA       CLOUDY    48  43  81 N9G16     30.06R
6HR MIN TEMP:  48; 6HR MAX TEMP:  54;

MENOMINEE      CLOUDY    52  45  76 N12       30.06R
6HR MIN TEMP:  52; 6HR MAX TEMP:  61; 6HR PCP:  0.11;

SAWYER-GWINN   PTSUNNY   45  39  81 N20       30.09R
$$
MIZ001>003-009>011-084-301300-
WESTERN UPPER MICHIGAN

CITY           SKY/WX    TMP DP  RH WIND       PRES   REMARKS
IRON MOUNTAIN  CLOUDY    50  44  80 N12       30.07R
6HR MIN TEMP:  50; 6HR MAX TEMP:  54; 6HR PCP:  0.01;

HOUGHTON       CLOUDY    45  40  82 N14G25    30.14R
6HR MIN TEMP:  45; 6HR MAX TEMP:  50;

COPPER HARBOR    N/A     42  38  85 N12       30.16R
6HR MIN TEMP:  42; 6HR MAX TEMP:  46;

IRONWOOD       CLOUDY    45  45 100 N10       30.14R
6HR MIN TEMP:  45; 6HR MAX TEMP:  46;

$$

ABBREVIATIONS USED IN REMARKS
   TC - TEMPERATURE IN CELSIUS
  WCI - WIND CHILL INDEX
   HX - HEAT INDEX
  VSB - VISIBILITY



USA.gov is the U.S. government's official web portal to all federal, state and local government web resources and services.